Back to catalog

TAURUS 1

AliveCommunicationsVLEO
NORAD 66305·PAYLOAD·🇹🇷 Turkey
This satellite name has not been confirmed by official sources yet.

Launched Nov 2, 2025 from Cape Canaveral Space Force Station

Loading…

Next Passes (next 24 hours)

TLE

FreshSource: Space-Track

Epoch: Sep 14, 2026, 13:02 UTC

1 66305U 25248N   26257.54336436  .00014854  00000-0  50249-3 0  9992
2 66305  45.4210 347.9912 0008484 216.9562 143.0745 15.30546717 46157

Track TAURUS 1 in real time with AllMySat

Download on the App Store